Location: Temple Hill
(37.3073°N, 88.6303°W)
Time: 17:39:01
(UTC+00:00)

USA 267 - Pass Details

Date: 23 November 2020
Orbit: 1100 x 1107 km, 123.0° (Epoch: 18 January)

Event Time Altitude Azimuth Distance (km) Brightness Sun altitude
Exits shadow 23:27:45 11° 85° (E) 2,904 4.8 -9.8°
Maximum altitude 23:33:05 30° 28° (NNE) 1,862 4.1 -10.8°
Drops below altitude 10° 23:38:35 10° 331° (NNW) 2,966 5.7 -11.8°
Sets 23:41:23 0° 321° (NW) 3,927 6.5 -12.3°
